Zurück zum Katalog

FENGYUN 1C DEB

AktivSSO
NORAD 31357·DEBRIS·🇨🇳 China

Gestartet May 10, 1999 von Taiyuan Satellite Launch Center

Loading…

Nächste Überflüge (nächste 24 Stunden)

TLE

AktuellSource: Space-Track

Epoche: Sep 14, 2026, 00:42 UTC

1 31357U 99025BRM 26257.02938955 -.00000030  00000-0  60113-5 0  9997
2 31357  98.5834 284.5525 0049263 217.1739 172.8220 14.18558159  5962

Verfolge FENGYUN 1C DEB in Echtzeit mit AllMySat

Download on the App Store